Flag for Vietnam Weather past 2 weeks in Ho Chi Minh, Vietnam

Now
95 °F

Scattered clouds.


Feels Like: 105 °F
Forecast: 79 / 93 °F
Wind: 12 mph from West

Location: Ho Chi Minh

Current Time: May 23, 2015 at 2:31:17 PM

Latest Report: May 23, 2015 at 2:00 PM


Visibility: N/A

Pressure: 29.74 "Hg

Humidity: 50%

Dew point: 73 °F

Location of Ho Chi MinhLocation

Historic Weather in Ho Chi Minh — Graph

°F

Ho Chi Minh temperature yesterday

Maximum temperature yesterday: 95 °F (at 11:00 AM)
Minimum temperature yesterday: 81 °F (at 2:30 PM)
Average temperature yesterday: 86 °F

Past Weeks' High & Low Weather Summary

 TemperatureHumidityPressure
High99 °F (May 19, 2:00 PM)94% (May 23, 2:30 AM)29.92 "Hg (May 23, 2:30 AM)
Low75 °F (May 9, 3:00 PM)34% (May 18, 1:30 PM)29.68 "Hg (May 8, 2:00 PM)
Average87 °F68%29.79 "Hg
* Reported May 8 1:00 PM — May 23 1:00 PM, Ho Chi Minh, Weather by CustomWeather, © 2015

Note: Actual official high and low records may vary slightly from our data, if they occured in-between our weather recording intervals... More about our weather records

Advertising

Ho Chi Minh weather history for previous 24 hours

 ConditionsComfort  
Time TempWeatherWind HumidityBarometerVisibility
1:00 PM
Sat, May 23
91 °FPartly sunny.12 mph56%29.77 "HgN/A
12:30 PM95 °FPartly sunny.8 mph50%29.80 "HgN/A
12:00 PM91 °FPartly sunny.10 mph56%29.80 "HgN/A
11:30 AM91 °FScattered clouds.8 mph52%29.83 "HgN/A
11:00 AM93 °FScattered clouds.9 mph53%29.83 "HgN/A
10:30 AM91 °FScattered clouds.7 mph56%29.83 "HgN/A
10:00 AM91 °FScattered clouds.6 mph59%29.83 "HgN/A
9:30 AM90 °FScattered clouds.7 mph63%29.86 "HgN/A
9:00 AM88 °FScattered clouds.6 mph70%29.83 "HgN/A
8:30 AM86 °FScattered clouds.7 mph75%29.83 "HgN/A
8:00 AM86 °FScattered clouds.7 mph75%29.83 "Hg5 mi
7:30 AM86 °FScattered clouds.2 mph75%29.83 "Hg5 mi
7:00 AM84 °FFog.1 mph79%29.83 "Hg2 mi
6:30 AM82 °FFog.1 mph84%29.83 "Hg2 mi
6:00 AM81 °FFog.2 mph89%29.80 "Hg2 mi
5:30 AM81 °FPassing clouds.1 mph84%29.80 "Hg5 mi
5:00 AM81 °FPassing clouds.1 mph84%29.80 "Hg5 mi
4:30 AM79 °FPassing clouds.No wind94%29.80 "Hg5 mi
4:00 AM79 °FPassing clouds.1 mph94%29.80 "Hg5 mi
3:30 AM79 °FPassing clouds.1 mph94%29.80 "Hg5 mi
3:00 AM79 °FPassing clouds.3 mph94%29.80 "Hg5 mi
2:30 AM79 °FPassing clouds.3 mph94%29.80 "Hg5 mi
2:00 AM81 °FPassing clouds.2 mph89%29.80 "Hg5 mi
1:30 AM81 °FPassing clouds.2 mph89%29.83 "Hg5 mi
1:00 AM81 °FPassing clouds.2 mph89%29.83 "Hg5 mi
12:30 AM81 °FPassing clouds.2 mph89%29.83 "Hg5 mi
12:00 AM81 °FPassing clouds.2 mph89%29.86 "Hg5 mi
11:30 PM
Fri, May 22
81 °FPassing clouds.1 mph89%29.83 "Hg5 mi
11:00 PM81 °FPassing clouds.1 mph89%29.86 "Hg5 mi
10:30 PM81 °FPassing clouds.5 mph89%29.86 "HgN/A
10:00 PM82 °FPassing clouds.7 mph79%29.86 "HgN/A
9:30 PM84 °FPassing clouds.5 mph74%29.86 "HgN/A
9:00 PM82 °FPassing clouds.3 mph79%29.83 "HgN/A
8:30 PM84 °FPassing clouds.2 mph70%29.80 "HgN/A
8:00 PM82 °FPassing clouds.2 mph74%29.77 "HgN/A
7:30 PM84 °FPassing clouds.6 mph70%29.77 "HgN/A
7:00 PM84 °FPassing clouds.7 mph66%29.77 "HgN/A
6:30 PM84 °FPartly cloudy.2 mph66%29.74 "HgN/A
6:00 PM84 °FBroken clouds.2 mph70%29.74 "HgN/A
5:30 PM84 °FLight rain. Broken clouds.5 mph74%29.74 "HgN/A
5:00 PM84 °FBroken clouds.2 mph74%29.74 "HgN/A
4:30 PM86 °FBroken clouds.6 mph66%29.74 "HgN/A
4:00 PM84 °FBroken clouds.5 mph74%29.74 "HgN/A
3:30 PM82 °FBroken clouds.1 mph79%29.74 "HgN/A
3:00 PM81 °FBroken clouds.3 mph84%29.74 "HgN/A
2:30 PM81 °FThunderstorms. Scattered clouds.12 mph74%29.74 "Hg5 mi
2:00 PM84 °FThunderstorms. Scattered clouds.15 mph70%29.77 "Hg5 mi
Weather by CustomWeather, © 2015

See weather overviewHow to use our weather pages